www.pogodaiklimat.ru

Погода и климат >> Архив погоды >> Беларусь >> Березинский Заповедник


ПОГОДА в Березинском Заповеднике

  • Прогноз погоды в Березинском Заповеднике
  • Монитор погоды в Березинском Заповеднике

АРХИВ ПОГОДЫ в Березинском Заповеднике

Время (UTC), дата Ветер
(напр.,м/с)
 
Видим.   Явления Облачность Т
(С)
Тd
(С)
f
(%)
Тe
(С)
Тes
(С)
Комфортность P
(гПа)
Po
(гПа)
Тmin
(С)
Tmax
(С)
R
(мм)
R24
(мм)
S
(см)
18 10.02 Ю 1 7000 м дымка ясно -0.2 -0.5 98 -2 -2 1009.0 987.2 +2.5 0.0
21 10.02 Ю 3 7000 м дымка ясно -0.5 -0.8 98 -6 -6 1007.6 985.8
00 11.02 Ю 3 8000 м дымка ясно -0.8 -1.2 97 -6 -6 1006.0 984.2
03 11.02 Ю 3 13 км 9/0
[Ac trans]
-0.1 -1.9 88 -5 -5 1003.7 982.0
06 11.02 Ю 4 11 км 9/0
[Ac trans]
+0.2 -2.2 84 -5 -5 1002.6 980.9 -1.0 23
09 11.02 Ю 4
{10}
11 км {дождь} 9/9 660 м
[Sc]
+0.9 -1.7 83 -4 -4 1001.9 980.3
12 11.02 Ю 4
{11}
1200 м снег {дождь} 10/10 240 м
[Frnb Ns]
0.0 -0.3 98 -6 -6 1001.0 979.3
15 11.02 Ю 4
{11}
7000 м в посл. час снег 10/10 240 м
[St]
-0.2 -0.5 98 -6 -6 1001.4 979.7
18 11.02 Ю 3 6000 м слаб. снег 10/10 240 м
[Frnb Ns]
+0.3 0.0 98 -5 -5 1001.4 979.8 +1.0 2
21 11.02 Ю 2 6000 м дымка {снег} 10/10 240 м
[St]
+0.6 +0.3 98 -3 -3 1001.1 979.5
00 12.02 Ю 3 3200 м дымка {снег} 10/10 210 м
[St]
+1.2 +0.9 98 -3 -3 1001.0 979.4
03 12.02 ЮЗ 3 9000 м дымка {дождь} 9/9 570 м
[Sc]
+1.6 +1.3 98 -3 -3 1000.7 979.2
06 12.02 З 2 6000 м слаб. снег {дождь} 10/10 330 м
[Frnb Ns]
+0.4 +0.1 98 -3 -3 1002.3 980.7 +0.3 1 25
09 12.02 ЮЗ 4 20 км в посл. час снег 9/9 540 м
[Sc]
+0.8 +0.5 98 -5 -5 1004.5 982.8
12 12.02 З 3 35 км {снег} 9/9 800 м
[Sc]
+1.2 -0.5 88 -3 -3 1006.5 984.8
15 12.02 З 2 6000 м слаб. снег 10/10 270 м
[Frnb Ns]
+0.3 -0.3 96 -3 -3 1009.0 987.2
18 12.02 СЗ 4 9000 м слаб. снег 10/10 400 м
[Frnb Ns]
-0.3 -0.9 96 -6 -6 1012.6 990.7 +1.4 0.5
21 12.02 С 5-10
{13}
35 км позёмок {снег} 9/9 750 м
[Sc]
-1.7 -5.5 75 -8 -8 1015.7 993.6
00 13.02 СЗ 2
{10}
35 км {снег, метель} 9/9 800 м
[Sc]
-1.7 -5.8 74 -5 -5 1016.7 994.6
03 13.02 СЗ 3 35 км 9/9 930 м
[Sc]
-1.3 -6.0 70 -6 -6 1016.9 994.8
06 13.02 З 3 35 км 9/9 1080 м
[Sc]
-1.5 -5.2 76 -6 -6 1017.2 995.1 -2.0 0.0 25
09 13.02 З 3 35 км 8/8 660 м
[Cu Sc]
-0.9 -5.5 71 -5 -5 1017.3 995.2
12 13.02 ЮЗ 4 35 км 10/0
[As trans]
+0.4 -4.4 70 -5 -4 1015.2 993.3
15 13.02 Ю 2 35 км в посл. час снег 9/9 630 м
[Sc]
-0.7 -1.7 93 -5 -5 1014.0 992.2
18 13.02 Ю 1 26 км {снег} 9/9 570 м
[Sc]
-1.0 -2.0 93 -3 -3 1014.4 992.5 +0.5 0.3
21 13.02 штиль 0 20 км 10/10 240 м
[St]
-1.0 -2.0 93 -2 -2 1016.9 995.0
00 14.02 штиль 0 3600 м дымка 10/10 210 м
[St]
-0.9 -1.3 97 -2 -2 1019.3 997.4
03 14.02 штиль 0 16 км 10/10 180 м
[St]
-0.5 -0.8 98 -2 -2 1021.1 999.1
06 14.02 СЗ 2 35 км 10/10 330 м
[St]
-0.3 -1.5 92 -4 -4 1023.4 1001.4 -1.1 26
09 14.02 З 3 28 км 10/10 240 м
[St]
+1.2 -0.5 88 -3 -3 1025.2 1003.2
12 14.02 СЗ 2 35 км 9/9 600 м
[Sc]
+2.4 +0.3 86 -1 -1 1025.8 1003.9
15 14.02 СЗ 1 30 км 9/9 720 м
[Sc]
+2.1 -1.0 80 +1 +1 1027.0 1005.0
18 14.02 З 1 14 км ясно -0.9 -1.3 97 -3 -3 1027.8 1005.7 +3.4
21 14.02 З 2 17 км 8/0
[Ci fib]
-1.6 -2.1 96 -6 -6 1027.8 1005.5
00 15.02 З 2 6000 м дымка 10/10 210 м
[St]
-0.7 -1.1 97 -5 -5 1027.0 1004.9
03 15.02 З 3 2300 м дымка 10/10 120 м
[St]
+0.2 +0.2 100 -5 -5 1026.3 1004.2
06 15.02 З 3 7000 м дымка 10/10 150 м
[St]
+1.7 +1.4 98 -3 -3 1025.5 1003.5 -2.2 23
09 15.02 З 3 30 км {морось} 10/10 120 м
[St]
+3.0 +2.2 94 -1 -1 1025.2 1003.4
12 15.02 З 3 35 км {морось} 10/10 270 м
[St]
+3.0 +2.0 93 -1 -1 1024.5 1002.7
15 15.02 З 2 24 км 10/10 210 м
[St]
+2.6 +2.1 97 -1 -1 1025.0 1003.2
18 15.02 З 3 15 км 10/10 240 м
[St]
+2.0 +1.5 96 -2 -2 1025.3 1003.3 +3.5 0.0
21 15.02 З 3 12 км 10/10 120 м
[St]
+1.7 +1.2 96 -3 -3 1024.7 1002.7
00 16.02 З 3 2800 м дымка 10/10 120 м
[St]
+1.7 +1.4 98 -3 -3 1024.0 1002.1
03 16.02 З 3 1800 м дымка 10/10 120 м
[St]
+1.6 +1.3 98 -3 -3 1023.3 1001.4
06 16.02 З 3 8000 м дымка 10/10 120 м
[St]
+1.3 +1.0 98 -3 -3 1022.5 1000.6 +1.2 22
09 16.02 З 3 30 км 9/9 540 м
[Sc]
+2.5 +2.0 96 -2 -2 1022.6 1000.9
12 16.02 З 3 35 км 8/0
[Ci fib]
+5.2 +1.1 75 +2 +4 1021.3 999.8
15 16.02 ЮЗ 2 35 км 4/0
[Ci fib]
+4.6 -0.2 71 +2 +2 1019.9 998.4
18 16.02 З 3 35 км ясно +1.7 -0.5 85 -3 -3 1018.2 996.5 +5.9
21 16.02 З 4 26 км ясно +1.7 -0.8 83 -3 -3 1016.1 994.4

 

Местоположение метеостанции Березинский Заповедник (Минская область, Беларусь): широта 54.73 долгота 28.35 высота над уровнем моря 150 м.

В архиве по умолчанию представлена погода в Березинском Заповеднике за последнюю неделю. Архивные данные за месяц целиком и за предыдущие месяцы, начиная с января 2011 года, Вы можете получить, выбрав интересующий диапазон дат из раскрывающегося списка и нажав кнопку "Ввод!".


*Определитесь, кто Вы:
робот инопланетянин человек

Внимание! Время в таблицах - всемирное. Для получения местного времени необходимо прибавить поправку, которая равна 3 ч.

Смотрите также архив погоды в соседних городах и на ближайших метеорологических станциях:

Погода в Лепеле (Витебская область, Беларусь) (27 км)
Погода в Докшицах (Витебская область, Беларусь) (42 км)
Погода в Борисове (Минская область, Беларусь) (52 км)
Погода в Сенно (Витебская область, Беларусь) (87 км)
Погода в Полоцке (Витебская область, Беларусь) (87 км)
Погода в Шарковщине (Витебская область, Беларусь) (91 км)
Погода в Вилейке (Минская область, Беларусь) (91 км)
Погода в Минске (город Минск, Беларусь) (95 км)
Погода в Нарочи (Минская область, Беларусь) (108 км)
Погода в Березино (Минская область, Беларусь) (108 км)

Пояснения к столбцам:

Ветер - указаны скорость ветра в м/с - средняя за 10 мин, порывы в срок и между сроками (в фигурных скобках) и направление, откуда дует ветер: С - северный, СВ - северо-восточный, В - восточный, ЮВ - юго-восточный, Ю - южный, ЮЗ - юго-западный, З - западный, СЗ - северо-западный.
Видимость - горизонтальная дальность видимости в метрах или километрах. При видимости от 1 до 10 км при отсутствии осадков обычно наблюдается дымка, при ухудшении видимости до 1 км и менее - туман. В сухую погоду видимость может ухудшаться дымом, пылью или мглою.
Явления - указаны атмосферные явления, наблюдавшиеся в срок или в последний час перед сроком; фигурными скобками обозначены явления, наблюдавшиеся между сроками (за 1-3 часа до срока); квадратными скобками обозначены град или гололедные отложения с указанием их диаметра в мм.
Облачность - указаны через наклонную черту общая и нижняя облачность в баллах и высота нижней границы облаков в метрах; квадратными скобками обозначены формы облаков: Ci - перистые, Cs - перисто-слоистые, Cc - перисто-кучевые, Ac - высококучевые, As - высокослоистые, Sc - слоисто-кучевые, Ns - слоисто-дождевые, Cu - кучевые, Cb - кучево-дождевые. Подробнее классификацию облаков см. в Атласе облаков (PDF).
T - Температура воздуха - температура, измеренная на высоте 2 м над землей.
Td - Температура точки росы - температура, при понижении до которой содержащийся в воздухе водяной пар достигнет насыщения.
f - Относительная влажность воздуха - влажноcть воздуха, измеренная на высоте 2 м над землей.
Te - Эффективная температура - температура, которую ощущает одетый по сезону человек в тени. Характеристика душности погоды. При расчете учитывается влияние влажности воздуха и скорости ветра на теплоощущения человека.
Tes - Эффективная температура на солнце - температура, которую ощущает человек, с поправкой на солнечный нагрев. Характеристика знойности погоды. Зависит от высоты солнца над горизонтом, облачности и скорости ветра. Ночью, в пасмурную погоду, а также при ветре 12 м/с и более поправка равна нулю.
P - Атмосферное давление - приведенное к уровню моря атмосферное давление.
Po - Атмосферное давление - измеренное на уровне метеостанции атмосферное давление.
Tmin - Минимальная температура - минимум температуры воздуха на высоте 2 м над землей.
Tmax - Максимальная температура - максимум температуры воздуха на высоте 2 м над землей.
R - Количество осадков - Количество выпавших осадков за период времени, мм. При наведении курсора мыши на число - период времени, за который выпало указанное количество осадков.
R24 - Количество осадков - Количество выпавших осадков за 24 часа, мм.
S - Снежный покров - Высота снежного покрова, см. При наведении курсора мыши на число - состояние снежного покрова и степень покрытия местности в баллах.